QPF
0.01 0.02 0.02 0.02 0.02 0.02 0.02 0.02 0.02 0.01 0.00 0.01 0.03 0.05 0.03 0.01 0.00 0.00 0.00 0.00 0.00 0.00 0.00 0.00 0.00 0.00 0.00 0.00 0.00 0.00 0.00 0.00 0.00 0.00 0.00 0.00 0.00 0.00 0.00 0.00 0.00 0.00 0.00 0.00 0.00 0.00 0.00 0.00 0.00 0.00 0.00 0.00 0.00 0.00
0.00 0.01 0.02 0.03 0.03 0.03 0.04 0.03 0.01 0.01 0.01 0.01 0.01 0.01 0.03 0.04 0.03 0.00 0.00 0.00 0.00 0.00 0.00 0.00 0.00 0.00 0.00 0.00 0.00 0.00 0.00 0.00 0.00 0.00 0.00 0.00 0.00 0.00 0.00 0.00 0.00 0.00 0.00 0.00 0.00 0.00 0.00 0.00 0.00 0.00 0.00 0.00 0.00 0.00
0.01 0.01 0.02 0.02 0.03 0.04 0.04 0.04 0.04 0.02 0.01 0.02 0.02 0.03 0.02 0.04 0.07 0.01 0.00 0.00 0.00 0.00 0.00 0.00 0.00 0.00 0.00 0.00 0.00 0.00 0.00 0.00 0.00 0.00 0.00 0.00 0.00 0.00 0.00 0.00 0.00 0.00 0.00 0.00 0.00 0.00 0.00 0.00 0.00 0.00 0.00 0.00 0.00 0.00
0.01 0.02 0.02 0.02 0.02 0.03 0.03 0.03 0.03 0.05 0.02 0.02 0.03 0.03 0.03 0.04 0.06 0.04 0.00 0.00 0.00 0.00 0.00 0.00 0.00 0.00 0.00 0.00 0.00 0.00 0.00 0.00 0.00 0.00 0.00 0.00 0.00 0.00 0.00 0.00 0.00 0.00 0.00 0.00 0.00 0.00 0.00 0.00 0.00 0.00 0.00 0.00 0.00 0.00
0.02 0.02 0.02 0.02 0.02 0.02 0.02 0.03 0.03 0.03 0.05 0.04 0.03 0.04 0.04 0.05 0.06 0.05 0.01 0.00 0.00 0.00 0.00 0.00 0.00 0.00 0.00 0.00 0.00 0.00 0.00 0.00 0.00 0.00 0.00 0.00 0.00 0.00 0.00 0.00 0.00 0.00 0.00 0.00 0.00 0.00 0.00 0.00 0.00 0.00 0.00 0.00 0.00 0.00
0.02 0.02 0.03 0.02 0.01 0.01 0.01 0.02 0.02 0.03 0.05 0.06 0.05 0.04 0.03 0.03 0.04 0.03 0.01 0.00 0.00 0.00 0.00 0.00 0.00 0.00 0.00 0.00 0.00 0.00 0.00 0.00 0.00 0.00 0.00 0.00 0.00 0.00 0.00 0.00 0.00 0.00 0.00 0.00 0.00 0.00 0.00 0.00 0.00 0.00 0.00 0.00 0.00 0.00
0.02 0.02 0.02 0.02 0.02 0.01 0.01 0.02 0.04 0.03 0.03 0.05 0.05 0.03 0.02 0.03 0.02 0.01 0.00 0.00 0.00 0.00 0.00 0.00 0.00 0.00 0.00 0.00 0.00 0.00 0.00 0.00 0.00 0.00 0.00 0.00 0.00 0.00 0.00 0.00 0.00 0.00 0.00 0.00 0.00 0.00 0.00 0.00 0.00 0.00 0.00 0.00 0.00 0.00
0.02 0.02 0.02 0.02 0.01 0.01 0.02 0.03 0.05 0.06 0.03 0.01 0.05 0.03 0.00 0.02 0.01 0.00 0.00 0.00 0.00 0.00 0.00 0.00 0.00 0.00 0.00 0.00 0.00 0.00 0.00 0.00 0.00 0.00 0.00 0.00 0.00 0.00 0.00 0.00 0.00 0.00 0.00 0.00 0.00 0.00 0.00 0.00 0.00 0.00 0.00 0.00 0.00 0.00
0.02 0.01 0.00 0.01 0.01 0.01 0.01 0.02 0.04 0.06 0.06 0.02 0.03 0.03 0.00 0.00 0.00 0.00 0.00 0.01 0.00 0.00 0.00 0.00 0.00 0.00 0.00 0.00 0.00 0.00 0.00 0.00 0.00 0.00 0.00 0.00 0.00 0.00 0.00 0.00 0.00 0.00 0.00 0.00 0.00 0.00 0.00 0.00 0.00 0.00 0.00 0.00 0.00 0.00
0.02 0.01 0.00 0.01 0.02 0.03 0.02 0.02 0.04 0.06 0.07 0.06 0.02 0.00 0.00 0.00 0.00 0.00 0.02 0.01 0.00 0.00 0.00 0.00 0.00 0.00 0.00 0.00 0.00 0.00 0.00 0.00 0.00 0.00 0.00 0.00 0.00 0.00 0.00 0.00 0.00 0.00 0.00 0.00 0.00 0.00 0.00 0.00 0.00 0.00 0.00 0.00 0.00 0.00
0.02 0.01 0.01 0.00 0.02 0.02 0.04 0.04 0.04 0.07 0.06 0.02 0.00 0.00 0.00 0.00 0.00 0.00 0.00 0.00 0.00 0.00 0.00 0.00 0.00 0.00 0.00 0.00 0.00 0.00 0.00 0.00 0.00 0.00 0.00 0.00 0.00 0.00 0.00 0.00 0.00 0.00 0.00 0.00 0.00 0.00 0.00 0.00 0.00 0.00 0.00 0.00 0.00 0.00
0.01 0.01 0.01 0.01 0.03 0.02 0.04 0.05 0.06 0.03 0.01 0.00 0.00 0.00 0.00 0.00 0.00 0.00 0.00 0.00 0.00 0.00 0.00 0.00 0.00 0.00 0.00 0.00 0.00 0.00 0.00 0.00 0.00 0.00 0.00 0.00 0.00 0.00 0.00 0.00 0.00 0.00 0.00 0.00 0.00 0.00 0.00 0.00 0.00 0.00 0.00 0.00 0.00 0.00
0.02 0.03 0.01 0.00 0.02 0.04 0.04 0.06 0.02 0.00 0.00 0.00 0.00 0.00 0.00 0.00 0.01 0.00 0.00 0.00 0.00 0.00 0.00 0.00 0.00 0.00 0.00 0.00 0.00 0.00 0.00 0.00 0.00 0.00 0.00 0.00 0.00 0.00 0.00 0.00 0.00 0.00 0.00 0.00 0.00 0.00 0.00 0.00 0.00 0.00 0.00 0.00 0.00 0.00
0.01 0.02 0.03 0.01 0.01 0.03 0.04 0.03 0.02 0.00 0.00 0.00 0.00 0.00 0.00 0.00 0.00 0.00 0.00 0.00 0.00 0.00 0.00 0.00 0.00 0.00 0.00 0.00 0.00 0.00 0.00 0.00 0.00 0.00 0.00 0.00 0.00 0.00 0.00 0.00 0.00 0.00 0.00 0.00 0.00 0.00 0.00 0.00 0.00 0.00 0.00 0.00 0.00 0.00
0.01 0.00 0.00 0.00 0.00 0.00 0.00 0.01 0.02 0.00 0.00 0.00 0.00 0.00 0.00 0.00 0.00 0.00 0.00 0.00 0.00 0.00 0.00 0.00 0.00 0.00 0.00 0.00 0.00 0.00 0.00 0.00 0.00 0.00 0.00 0.00 0.00 0.00 0.00 0.00 0.00 0.00 0.00 0.00 0.00 0.00 0.00 0.00 0.00 0.00 0.00 0.00 0.00 0.00
0.00 0.00 0.01 0.01 0.00 0.00 0.01 0.01 0.01 0.00 0.00 0.00 0.00 0.00 0.00 0.00 0.00 0.00 0.00 0.00 0.00 0.00 0.00 0.00 0.00 0.00 0.00 0.00 0.00 0.00 0.00 0.00 0.00 0.00 0.00 0.00 0.00 0.00 0.00 0.00 0.00 0.00 0.00 0.00 0.00 0.00 0.00 0.00 0.00 0.00 0.00 0.00 0.00 0.00
0.00 0.00 0.00 0.00 0.00 0.00 0.00 0.00 0.00 0.00 0.00 0.00 0.00 0.00 0.00 0.00 0.00 0.00 0.00 0.00 0.00 0.00 0.00 0.00 0.00 0.00 0.00 0.00 0.00 0.00 0.00 0.00 0.00 0.00 0.00 0.00 0.00 0.00 0.00 0.00 0.00 0.00 0.00 0.00 0.00 0.00 0.00 0.00 0.00 0.00 0.00 0.00 0.00 0.00
0.00 0.00 0.00 0.00 0.00 0.00 0.00 0.00 0.00 0.00 0.00 0.00 0.00 0.00 0.00 0.00 0.00 0.00 0.00 0.00 0.00 0.00 0.00 0.00 0.00 0.00 0.00 0.00 0.00 0.00 0.00 0.00 0.00 0.00 0.00 0.00 0.00 0.00 0.00 0.00 0.00 0.00 0.00 0.00 0.00 0.00 0.00 0.00 0.00 0.00 0.00 0.00 0.00 0.00
0.00 0.00 0.00 0.00 0.00 0.00 0.00 0.00 0.00 0.00 0.00 0.00 0.00 0.00 0.00 0.00 0.00 0.00 0.00 0.00 0.00 0.00 0.00 0.00 0.00 0.00 0.00 0.00 0.00 0.00 0.00 0.00 0.00 0.00 0.00 0.00 0.00 0.00 0.00 0.00 0.00 0.00 0.00 0.00 0.00 0.00 0.00 0.00 0.00 0.00 0.00 0.00 0.00 0.00
0.00 0.00 0.00 0.00 0.00 0.00 0.00 0.00 0.00 0.00 0.00 0.00 0.00 0.00 0.00 0.00 0.00 0.00 0.00 0.00 0.00 0.00 0.00 0.00 0.00 0.00 0.00 0.00 0.00 0.00 0.00 0.00 0.00 0.00 0.00 0.00 0.00 0.00 0.00 0.00 0.00 0.00 0.00 0.00 0.00 0.00 0.00 0.00 0.00 0.00 0.00 0.00 0.00 0.00
0.00 0.00 0.00 0.00 0.00 0.00 0.00 0.00 0.00 0.00 0.00 0.00 0.00 0.00 0.00 0.00 0.00 0.00 0.00 0.00 0.00 0.00 0.00 0.00 0.00 0.00 0.00 0.00 0.00 0.00 0.00 0.00 0.00 0.00 0.00 0.00 0.00 0.00 0.00 0.00 0.00 0.00 0.00 0.00 0.00 0.00 0.00 0.00 0.00 0.00 0.00 0.00 0.00 0.00
0.00 0.00 0.00 0.00 0.00 0.00 0.00 0.00 0.00 0.00 0.00 0.00 0.00 0.00 0.00 0.00 0.00 0.00 0.00 0.00 0.00 0.00 0.00 0.00 0.00 0.00 0.00 0.00 0.00 0.00 0.00 0.00 0.00 0.00 0.00 0.00 0.00 0.00 0.00 0.00 0.00 0.00 0.00 0.00 0.00 0.00 0.00 0.00 0.00 0.00 0.00 0.00 0.00 0.00
0.00 0.00 0.00 0.00 0.00 0.00 0.00 0.00 0.00 0.00 0.00 0.00 0.00 0.00 0.00 0.00 0.00 0.00 0.00 0.00 0.00 0.00 0.00 0.00 0.00 0.00 0.00 0.00 0.00 0.00 0.00 0.00 0.00 0.00 0.00 0.00 0.00 0.00 0.00 0.00 0.00 0.00 0.00 0.00 0.00 0.00 0.00 0.00 0.00 0.00 0.00 0.00 0.00 0.00
0.00 0.00 0.00 0.00 0.00 0.00 0.00 0.00 0.00 0.00 0.00 0.00 0.00 0.00 0.00 0.00 0.00 0.00 0.00 0.00 0.00 0.00 0.00 0.00 0.00 0.00 0.00 0.00 0.00 0.00 0.00 0.00 0.00 0.00 0.00 0.00 0.00 0.00 0.00 0.00 0.00 0.00 0.00 0.00 0.00 0.00 0.00 0.00 0.00 0.00 0.00 0.00 0.00 0.00
0.00 0.00 0.00 0.00 0.00 0.00 0.00 0.00 0.00 0.00 0.00 0.00 0.00 0.00 0.00 0.00 0.00 0.00 0.00 0.00 0.00 0.00 0.00 0.00 0.00 0.00 0.00 0.00 0.00 0.00 0.00 0.00 0.00 0.00 0.00 0.00 0.00 0.00 0.00 0.00 0.00 0.00 0.00 0.00 0.00 0.00 0.00 0.00 0.00 0.00 0.00 0.00 0.00 0.00
0.00 0.00 0.00 0.00 0.00 0.00 0.00 0.00 0.00 0.00 0.00 0.00 0.00 0.00 0.00 0.00 0.00 0.00 0.00 0.00 0.00 0.00 0.00 0.00 0.00 0.00 0.00 0.00 0.00 0.00 0.00 0.00 0.00 0.00 0.00 0.00 0.00 0.00 0.00 0.00 0.00 0.00 0.00 0.00 0.00 0.00 0.00 0.00 0.00 0.00 0.00 0.00 0.00 0.00
0.00 0.00 0.00 0.00 0.00 0.00 0.00 0.00 0.00 0.00 0.00 0.00 0.00 0.00 0.00 0.00 0.00 0.00 0.00 0.00 0.00 0.00 0.00 0.00 0.00 0.00 0.00 0.00 0.00 0.00 0.00 0.00 0.00 0.00 0.00 0.00 0.00 0.00 0.00 0.00 0.00 0.00 0.00 0.00 0.00 0.00 0.00 0.00 0.00 0.00 0.00 0.00 0.00 0.00
0.00 0.00 0.00 0.00 0.00 0.00 0.00 0.00 0.00 0.00 0.00 0.00 0.00 0.00 0.00 0.00 0.00 0.00 0.00 0.00 0.00 0.00 0.00 0.00 0.00 0.00 0.00 0.00 0.00 0.00 0.00 0.00 0.00 0.00 0.00 0.00 0.00 0.00 0.00 0.00 0.00 0.00 0.00 0.00 0.00 0.00 0.00 0.00 0.00 0.00 0.00 0.00 0.00 0.00
0.00 0.00 0.00 0.00 0.00 0.00 0.00 0.00 0.00 0.00 0.00 0.00 0.00 0.00 0.00 0.00 0.00 0.00 0.00 0.00 0.00 0.00 0.00 0.00 0.00 0.00 0.00 0.00 0.00 0.00 0.00 0.00 0.00 0.00 0.00 0.00 0.00 0.00 0.00 0.00 0.00 0.00 0.00 0.00 0.00 0.00 0.00 0.00 0.00 0.00 0.00 0.00 0.00 0.00
0.00 0.00 0.00 0.00 0.00 0.00 0.00 0.00 0.00 0.00 0.00 0.00 0.00 0.00 0.00 0.00 0.00 0.00 0.00 0.00 0.00 0.00 0.00 0.00 0.00 0.00 0.00 0.00 0.00 0.00 0.00 0.00 0.00 0.00 0.00 0.00 0.00 0.00 0.00 0.00 0.00 0.00 0.00 0.00 0.00 0.00 0.00 0.00 0.00 0.00 0.00 0.00 0.00 0.00
0.00 0.00 0.00 0.00 0.00 0.00 0.00 0.00 0.00 0.00 0.00 0.00 0.00 0.00 0.00 0.00 0.00 0.00 0.00 0.00 0.00 0.00 0.00 0.00 0.00 0.00 0.00 0.00 0.00 0.00 0.00 0.00 0.00 0.00 0.00 0.00 0.00 0.00 0.00 0.00 0.00 0.00 0.00 0.00 0.00 0.00 0.00 0.00 0.00 0.00 0.00 0.00 0.00 0.00
0.00 0.00 0.00 0.00 0.00 0.00 0.00 0.00 0.00 0.00 0.00 0.00 0.00 0.00 0.00 0.00 0.00 0.00 0.00 0.00 0.00 0.00 0.00 0.00 0.00 0.00 0.00 0.00 0.00 0.00 0.00 0.00 0.00 0.00 0.00 0.00 0.00 0.00 0.00 0.00 0.00 0.00 0.00 0.00 0.00 0.00 0.00 0.00 0.00 0.00 0.00 0.00 0.00 0.00
0.00 0.00 0.00 0.00 0.00 0.00 0.00 0.00 0.00 0.00 0.00 0.00 0.00 0.00 0.00 0.00 0.00 0.00 0.00 0.00 0.00 0.00 0.00 0.00 0.00 0.00 0.00 0.00 0.00 0.00 0.00 0.00 0.00 0.00 0.00 0.00 0.00 0.00 0.00 0.00 0.00 0.00 0.00 0.00 0.00 0.00 0.00 0.00 0.00 0.00 0.00 0.00 0.00 0.00
MSLP
1004.50 1004.17 1004.05 1003.91 1003.73 1003.60 1003.61 1003.74 1003.77 1003.96 1004.08 1004.47 1004.80 1005.13 1005.60 1005.95 1006.62 1007.22 1008.20 1008.17 1008.55 1009.40 1009.44 1009.27 1009.16 1009.22 1009.53 1009.72 1010.67 1012.63 1013.20 1013.80 1014.05 1014.13 1014.53 1015.20 1015.85 1016.34 1016.77 1016.79 1017.00 1017.32 1018.28 1018.73 1018.62 1018.04 1017.07 1016.18 1017.30 1017.33 1016.60 1017.03 1017.54 1018.33
1003.58 1003.35 1003.33 1003.20 1003.09 1002.98 1002.93 1003.04 1003.14 1003.27 1003.55 1003.84 1004.28 1004.68 1005.09 1005.54 1005.96 1006.83 1007.91 1008.29 1008.30 1009.31 1009.66 1009.19 1008.71 1008.81 1008.86 1008.82 1009.71 1011.45 1011.79 1012.02 1012.44 1013.42 1014.52 1015.32 1016.38 1016.92 1016.79 1017.40 1017.08 1017.03 1015.92 1016.48 1016.61 1015.51 1015.51 1015.70 1015.45 1015.76 1016.00 1016.84 1017.60 1017.86
1002.49 1002.42 1002.34 1002.40 1002.32 1002.35 1002.36 1002.31 1002.47 1002.73 1002.91 1003.29 1003.71 1004.02 1004.42 1004.89 1005.57 1006.30 1007.26 1008.17 1008.52 1009.44 1009.38 1009.40 1008.85 1008.28 1008.70 1008.97 1008.90 1010.00 1011.52 1011.29 1011.86 1012.37 1014.07 1015.25 1015.70 1016.26 1016.86 1016.60 1016.68 1015.96 1015.63 1015.73 1016.16 1015.62 1015.48 1015.47 1015.48 1015.79 1016.18 1016.50 1016.69 1016.77
1001.69 1001.63 1001.46 1001.49 1001.48 1001.50 1001.65 1001.89 1001.94 1002.13 1002.38 1002.59 1002.98 1003.43 1003.81 1004.36 1004.93 1005.84 1006.72 1007.33 1008.04 1009.35 1009.79 1009.08 1009.06 1008.64 1008.16 1008.81 1009.08 1009.35 1009.98 1011.09 1011.90 1012.66 1013.62 1014.77 1015.59 1015.37 1016.02 1015.49 1015.43 1014.44 1014.97 1015.28 1015.41 1015.25 1015.25 1015.17 1015.25 1015.20 1015.71 1015.84 1016.26 1016.67
1000.83 1000.82 1000.73 1000.68 1000.69 1000.80 1000.93 1001.13 1001.56 1001.54 1001.77 1002.09 1002.55 1002.96 1003.43 1003.88 1004.42 1005.37 1006.08 1006.52 1006.94 1008.08 1009.38 1009.54 1009.26 1008.67 1008.46 1008.75 1009.25 1009.65 1010.38 1011.22 1012.36 1013.38 1013.85 1014.74 1014.79 1015.37 1016.03 1015.71 1014.47 1013.41 1013.22 1013.90 1013.68 1013.52 1013.73 1013.96 1013.90 1014.06 1014.95 1015.28 1015.49 1016.20
999.85 999.89 999.95 999.97 1000.03 1000.17 1000.27 1000.48 1000.77 1001.04 1001.20 1001.41 1001.93 1002.47 1002.90 1003.43 1004.20 1005.17 1005.66 1006.15 1006.42 1007.21 1008.79 1009.71 1009.19 1009.23 1009.23 1009.43 1009.85 1010.16 1010.62 1011.43 1011.98 1012.44 1013.61 1013.84 1013.74 1014.23 1015.41 1015.14 1011.36 1011.98 1011.98 1011.96 1012.53 1012.95 1013.13 1012.83 1013.17 1013.58 1014.31 1014.49 1014.82 1015.41
999.03 999.04 999.20 999.19 999.25 999.41 999.72 999.96 1000.11 1000.53 1000.89 1001.11 1001.60 1002.08 1002.52 1002.90 1003.79 1004.53 1004.99 1004.83 1005.42 1006.80 1008.00 1009.42 1009.67 1009.88 1009.82 1010.07 1010.50 1010.82 1011.02 1011.37 1011.68 1012.66 1013.16 1013.48 1013.57 1013.88 1014.44 1013.42 1009.93 1011.13 1011.19 1011.62 1011.79 1012.60 1013.00 1012.91 1012.89 1012.90 1013.62 1013.76 1014.22 1014.73
998.83 998.73 998.45 998.38 998.38 998.51 998.89 999.46 999.51 999.88 1000.42 1000.95 1001.32 1001.82 1002.40 1002.98 1003.80 1004.67 1004.78 1004.84 1005.22 1006.53 1007.45 1008.34 1009.58 1010.13 1009.95 1010.56 1011.25 1011.10 1011.42 1011.63 1011.93 1012.21 1012.92 1013.17 1013.78 1013.93 1013.68 1010.35 1010.84 1010.85 1011.03 1011.32 1011.28 1011.69 1011.74 1012.00 1012.47 1012.90 1013.55 1014.25 1014.72 1015.05
998.39 997.80 997.23 997.22 997.36 997.49 997.96 998.61 998.75 999.24 999.93 1000.64 1001.32 1001.60 1002.72 1003.50 1003.37 1003.79 1004.70 1004.66 1005.27 1006.58 1007.00 1007.69 1009.32 1010.16 1010.23 1010.39 1010.81 1011.15 1010.95 1011.75 1011.77 1011.85 1012.22 1012.74 1013.22 1012.75 1010.69 1009.95 1010.10 1010.10 1010.35 1010.23 1010.94 1011.63 1011.87 1012.63 1012.52 1013.02 1013.73 1014.29 1014.77 1014.88
997.37 996.78 995.99 995.86 996.23 996.50 997.14 997.43 997.73 998.43 999.34 1000.22 1001.52 1002.06 1002.95 1003.11 1003.16 1003.79 1004.65 1005.45 1005.86 1006.25 1006.80 1008.17 1009.50 1010.35 1010.04 1010.38 1010.58 1010.96 1010.89 1011.44 1011.65 1011.53 1011.75 1011.98 1011.78 1010.38 1009.05 1009.72 1009.56 1009.44 1009.74 1010.25 1011.57 1011.73 1012.18 1012.78 1012.96 1013.11 1013.59 1013.79 1014.26 1014.54
996.53 995.83 994.94 994.42 995.00 995.75 995.97 995.91 996.95 997.94 999.17 1000.05 1000.99 1002.32 1002.96 1002.96 1003.41 1004.61 1005.10 1005.90 1006.33 1006.81 1007.39 1008.40 1008.88 1009.55 1009.81 1009.86 1010.34 1010.32 1010.59 1010.85 1011.32 1011.53 1011.81 1012.14 1011.96 1008.89 1008.74 1009.51 1009.00 1009.10 1009.40 1009.84 1010.39 1010.82 1011.40 1011.80 1012.42 1013.14 1013.59 1013.92 1014.17 1014.89
995.83 994.15 993.70 993.75 994.06 994.77 995.15 995.24 996.17 998.23 998.83 999.32 1000.39 1002.01 1002.84 1003.69 1004.62 1005.69 1006.51 1007.10 1007.49 1007.92 1008.46 1008.59 1008.89 1009.14 1009.88 1009.63 1009.62 1010.31 1010.62 1011.10 1011.39 1011.58 1012.50 1012.75 1010.58 1009.23 1009.66 1009.81 1009.40 1009.89 1010.39 1010.79 1011.25 1011.39 1011.84 1012.61 1013.02 1013.70 1014.42 1015.03 1015.59 1016.23
995.30 994.33 993.94 993.32 993.45 993.92 994.62 994.91 996.66 998.21 999.02 1000.25 1001.28 1002.41 1002.99 1004.06 1005.16 1006.40 1007.54 1008.66 1008.95 1008.48 1008.45 1008.90 1009.16 1009.01 1009.54 1009.22 1009.99 1010.44 1010.94 1011.68 1012.10 1012.81 1013.13 1012.36 1010.70 1011.29 1012.17 1012.41 1011.98 1012.07 1012.18 1012.29 1012.64 1012.97 1013.43 1014.29 1014.74 1015.28 1016.10 1016.58 1017.22 1018.00
996.13 995.35 994.64 994.30 993.78 993.87 994.19 995.59 996.82 998.09 999.27 1001.07 1002.08 1003.41 1004.27 1005.53 1006.44 1007.02 1007.80 1008.23 1007.86 1007.73 1007.88 1008.42 1008.97 1008.90 1009.37 1009.54 1009.80 1010.68 1011.16 1012.32 1013.74 1014.50 1014.19 1013.45 1014.48 1014.91 1014.96 1014.97 1014.90 1014.53 1014.28 1014.30 1014.52 1014.80 1015.27 1015.97 1016.94 1017.39 1017.90 1018.47 1019.02 1019.93
996.70 996.36 996.18 995.85 995.82 996.09 995.73 996.54 997.48 998.25 1000.10 1002.15 1003.26 1004.96 1006.26 1006.99 1007.88 1008.72 1008.57 1008.69 1008.45 1008.34 1008.06 1008.49 1008.66 1008.47 1009.08 1009.43 1009.52 1010.58 1012.19 1013.31 1014.20 1014.99 1015.75 1016.61 1017.30 1017.57 1017.35 1017.34 1017.33 1017.16 1016.96 1016.88 1016.90 1016.82 1017.32 1017.77 1018.40 1019.27 1019.83 1020.12 1020.55 1020.99
997.76 997.61 997.92 997.75 997.29 997.46 997.93 998.56 999.16 999.76 1001.35 1003.21 1005.17 1007.37 1008.45 1008.92 1009.86 1010.07 1009.45 1008.87 1008.43 1008.19 1007.87 1007.80 1008.37 1008.82 1009.02 1009.35 1010.28 1011.32 1013.06 1014.53 1015.54 1016.79 1018.02 1018.62 1019.02 1019.22 1019.31 1019.25 1019.35 1019.28 1019.10 1019.08 1018.78 1018.77 1019.13 1019.73 1020.33 1021.11 1021.57 1021.76 1022.09 1022.10
998.96 1000.00 999.54 999.04 999.02 999.06 999.19 999.82 1000.84 1002.52 1004.03 1005.46 1008.02 1008.73 1009.63 1010.18 1010.28 1010.45 1009.76 1009.06 1008.39 1008.26 1008.11 1008.12 1008.56 1008.83 1009.64 1010.82 1012.19 1013.40 1015.02 1016.76 1017.67 1018.50 1019.29 1019.95 1020.36 1020.48 1020.42 1020.38 1020.63 1020.68 1020.59 1020.51 1020.54 1020.62 1020.74 1021.06 1021.46 1022.20 1022.66 1023.28 1023.18 1023.25
1000.87 1000.86 1000.42 1000.39 1000.30 1000.65 1002.00 1003.03 1003.82 1005.12 1007.08 1008.33 1009.06 1010.46 1010.87 1011.45 1011.78 1011.42 1010.96 1010.02 1009.13 1008.78 1008.53 1008.85 1009.34 1010.84 1012.58 1014.15 1015.70 1016.87 1017.60 1018.47 1018.97 1019.76 1020.41 1020.74 1020.95 1021.23 1021.23 1021.32 1021.37 1021.52 1021.97 1022.19 1022.25 1022.28 1022.06 1022.07 1022.46 1023.23 1023.51 1023.92 1024.00 1024.31
1001.58 1001.50 1001.37 1001.53 1001.61 1003.07 1005.22 1006.77 1007.07 1008.14 1010.07 1010.66 1010.97 1011.23 1011.66 1012.26 1012.50 1012.38 1011.96 1011.09 1010.38 1010.03 1010.23 1010.98 1012.77 1015.40 1017.30 1018.52 1019.54 1020.11 1020.72 1021.03 1021.14 1020.88 1020.95 1021.38 1021.70 1021.73 1021.87 1021.64 1022.17 1022.28 1022.66 1022.88 1023.05 1023.54 1023.67 1023.62 1023.89 1024.21 1024.41 1024.45 1024.90 1025.26
1002.51 1002.82 1002.98 1003.01 1002.74 1005.16 1007.80 1009.22 1009.29 1009.87 1011.60 1012.16 1012.24 1012.53 1012.78 1013.10 1013.32 1013.33 1013.16 1012.89 1012.81 1013.50 1015.00 1017.22 1019.46 1021.00 1021.61 1022.20 1022.64 1022.86 1022.76 1022.58 1022.23 1021.87 1021.63 1021.84 1021.98 1022.24 1022.53 1022.65 1022.80 1023.10 1023.41 1023.71 1023.94 1024.00 1024.74 1024.82 1024.69 1024.77 1024.81 1024.92 1025.30 1025.32
1003.42 1003.99 1003.98 1004.07 1006.14 1007.75 1010.05 1011.14 1011.77 1012.40 1012.86 1013.28 1013.51 1013.47 1013.96 1014.03 1014.53 1014.87 1015.56 1015.87 1016.84 1020.24 1021.74 1022.90 1023.40 1023.94 1024.26 1024.16 1024.08 1024.14 1023.96 1023.88 1023.59 1023.32 1022.95 1022.59 1022.71 1022.82 1022.98 1023.26 1023.41 1023.66 1024.05 1024.54 1024.60 1025.02 1025.29 1025.42 1025.46 1025.42 1025.33 1025.37 1025.30 1025.20
1005.28 1005.22 1006.05 1006.35 1008.03 1009.75 1011.29 1012.20 1012.62 1013.14 1013.68 1014.45 1014.54 1014.93 1015.66 1016.35 1016.89 1017.67 1018.10 1019.48 1022.82 1024.75 1025.26 1025.43 1025.41 1025.34 1025.30 1025.15 1025.09 1024.96 1024.89 1024.49 1023.89 1023.50 1023.25 1023.12 1023.13 1023.19 1023.37 1023.67 1023.87 1024.36 1024.72 1025.01 1025.18 1025.39 1025.62 1025.50 1025.48 1025.52 1025.52 1025.50 1025.38 1025.15
1006.25 1006.68 1008.44 1009.43 1010.24 1011.62 1013.42 1012.79 1013.14 1013.81 1014.44 1015.29 1015.43 1016.30 1017.53 1018.04 1018.57 1019.03 1021.39 1023.90 1025.63 1026.46 1026.58 1026.49 1026.14 1025.88 1025.88 1025.65 1025.55 1025.37 1025.26 1024.89 1024.42 1024.23 1024.06 1023.86 1023.83 1023.89 1024.06 1024.16 1024.33 1024.72 1025.13 1025.43 1025.54 1025.67 1025.73 1025.44 1025.52 1025.56 1025.55 1025.41 1025.26 1025.02
1008.54 1011.14 1012.53 1013.34 1013.88 1014.69 1014.33 1014.40 1014.46 1014.97 1015.50 1016.11 1016.78 1018.20 1019.07 1019.53 1019.73 1021.21 1024.06 1025.98 1026.87 1027.02 1027.03 1027.04 1026.78 1026.06 1025.80 1025.82 1025.99 1025.95 1025.75 1025.32 1025.00 1024.85 1024.79 1024.39 1024.42 1024.58 1024.65 1024.68 1024.91 1025.22 1025.53 1025.62 1025.74 1025.77 1025.64 1025.48 1025.39 1025.24 1025.26 1025.26 1025.07 1024.95
1011.64 1016.98 1017.16 1017.36 1017.21 1016.81 1016.79 1016.74 1016.75 1016.76 1017.85 1018.24 1018.67 1019.65 1020.26 1020.57 1021.78 1024.11 1026.16 1027.55 1027.73 1027.77 1027.80 1027.62 1027.29 1026.94 1026.78 1026.56 1026.33 1026.17 1026.08 1025.90 1025.60 1025.39 1025.47 1025.32 1025.16 1025.14 1025.08 1025.06 1025.18 1025.53 1025.87 1025.91 1026.21 1026.21 1025.76 1025.51 1025.36 1025.07 1024.85 1024.63 1024.61 1024.24
1017.64 1020.87 1020.96 1020.98 1020.63 1020.00 1019.97 1019.69 1019.77 1020.09 1020.02 1020.58 1021.31 1021.32 1021.21 1022.17 1024.34 1027.06 1028.35 1028.75 1028.69 1028.47 1028.39 1028.27 1028.14 1027.68 1027.22 1027.15 1026.95 1026.46 1026.29 1026.18 1026.00 1025.74 1025.94 1025.95 1025.90 1025.82 1026.00 1026.01 1026.04 1025.70 1025.67 1025.95 1026.19 1026.19 1025.91 1025.42 1025.05 1024.66 1024.42 1023.81 1023.47 1023.34
1022.18 1023.57 1023.40 1023.06 1022.85 1022.38 1022.24 1022.37 1022.49 1022.78 1023.32 1024.08 1024.07 1023.15 1023.23 1025.14 1027.58 1028.97 1029.03 1029.11 1029.00 1028.69 1028.45 1028.26 1028.31 1028.14 1027.90 1027.46 1026.85 1026.40 1026.09 1026.14 1026.07 1026.09 1026.16 1026.20 1026.25 1026.32 1026.28 1026.26 1026.05 1025.80 1025.53 1025.39 1025.56 1025.62 1025.39 1025.02 1024.65 1024.19 1023.80 1023.33 1023.08 1022.91
1025.15 1025.80 1025.73 1025.20 1024.75 1025.03 1025.12 1025.62 1026.34 1027.16 1027.31 1027.24 1026.35 1026.24 1026.91 1028.19 1029.66 1029.72 1029.34 1029.16 1028.98 1028.63 1028.23 1027.99 1028.08 1028.10 1027.96 1027.75 1027.22 1026.57 1025.96 1025.75 1025.98 1026.08 1026.16 1026.19 1026.17 1026.09 1025.95 1025.90 1025.78 1025.53 1025.34 1025.14 1024.92 1024.58 1024.52 1024.36 1023.90 1023.53 1023.29 1023.04 1022.71 1022.45
1026.87 1027.13 1026.81 1026.53 1026.55 1027.49 1028.93 1029.50 1029.77 1029.86 1029.95 1029.20 1028.10 1028.21 1028.95 1029.64 1030.02 1030.00 1029.74 1029.44 1029.06 1028.80 1028.64 1028.56 1028.49 1028.27 1028.16 1027.88 1027.71 1027.53 1027.26 1026.97 1026.86 1026.92 1027.03 1026.90 1026.71 1026.37 1025.98 1025.76 1025.48 1025.22 1025.00 1024.79 1024.44 1024.02 1023.48 1023.13 1022.90 1022.69 1022.61 1022.54 1022.34 1022.17
1028.62 1028.45 1027.94 1028.29 1029.11 1030.44 1031.29 1031.62 1031.24 1030.94 1030.55 1029.98 1029.40 1029.20 1029.58 1030.03 1030.22 1030.04 1029.91 1029.74 1029.58 1029.55 1029.58 1029.53 1029.43 1029.14 1029.06 1028.82 1028.60 1028.25 1027.98 1027.87 1027.91 1028.04 1027.79 1027.45 1027.09 1026.42 1026.01 1025.59 1025.25 1024.96 1024.75 1024.62 1024.46 1024.07 1023.57 1023.24 1022.99 1022.74 1022.67 1022.54 1022.46 1022.27
1029.75 1029.26 1029.29 1030.09 1031.26 1031.93 1032.14 1032.05 1031.59 1031.14 1030.53 1030.19 1029.99 1030.10 1030.46 1030.56 1030.47 1030.68 1030.63 1030.47 1030.38 1030.31 1030.18 1030.11 1029.90 1029.85 1029.73 1029.54 1029.39 1028.95 1028.43 1028.20 1028.14 1028.00 1027.65 1027.26 1026.67 1026.18 1025.72 1025.26 1024.85 1024.63 1024.52 1024.49 1024.38 1024.39 1024.00 1023.62 1023.40 1023.17 1023.02 1022.90 1022.65 1022.44
1030.80 1031.28 1031.36 1031.79 1032.37 1032.36 1032.24 1032.07 1031.64 1031.18 1030.89 1030.68 1030.78 1030.63 1030.81 1030.78 1031.08 1031.37 1031.69 1031.14 1031.00 1031.08 1031.22 1031.14 1030.85 1030.52 1030.18 1029.94 1029.77 1029.63 1029.45 1029.23 1028.72 1028.16 1027.38 1026.87 1026.28 1025.80 1025.31 1024.68 1024.37 1024.49 1024.47 1024.43 1024.28 1024.21 1024.05 1023.78 1023.58 1023.37 1023.17 1022.87 1022.55 1022.27
1032.58 1032.55 1032.68 1033.12 1033.22 1033.07 1032.79 1032.44 1031.74 1031.44 1031.07 1031.09 1031.16 1031.11 1031.09 1031.07 1031.31 1031.68 1031.96 1031.85 1032.04 1032.28 1032.30 1032.00 1031.42 1030.78 1030.35 1029.94 1029.89 1029.90 1029.67 1029.34 1028.77 1027.79 1027.20 1026.50 1025.93 1025.35 1024.89 1024.50 1024.80 1024.59 1024.44 1024.37 1024.25 1024.09 1023.87 1023.62 1023.38 1023.09 1022.82 1022.54 1022.20 1021.84
Thickness
5304 5316 5328 5339 5349 5358 5366 5372 5379 5384 5391 5394 5397 5401 5403 5407 5407 5409 5406 5412 5413 5408 5415 5422 5433 5435 5432 5442 5442 5417 5425 5415 5419 5432 5436 5424 5420 5412 5410 5419 5413 5416 5403 5381 5378 5390 5410 5404 5389 5397 5400 5379 5381 5379
5293 5304 5313 5324 5336 5346 5354 5361 5368 5374 5379 5384 5387 5389 5392 5394 5397 5395 5395 5396 5400 5396 5401 5407 5419 5423 5428 5433 5423 5407 5421 5416 5421 5414 5403 5393 5380 5374 5381 5393 5393 5409 5417 5398 5405 5404 5395 5389 5392 5384 5378 5370 5364 5366
5284 5293 5303 5311 5322 5331 5339 5349 5356 5362 5368 5373 5375 5378 5382 5383 5382 5385 5381 5379 5381 5372 5384 5391 5402 5409 5410 5409 5413 5409 5393 5407 5407 5402 5385 5376 5379 5377 5359 5369 5366 5386 5391 5383 5384 5384 5379 5371 5370 5366 5357 5359 5359 5358
5273 5281 5291 5300 5309 5319 5327 5334 5342 5349 5355 5362 5366 5369 5372 5372 5371 5369 5370 5370 5368 5359 5354 5378 5377 5388 5393 5391 5394 5397 5397 5386 5381 5378 5370 5359 5357 5369 5355 5370 5373 5392 5383 5362 5358 5371 5363 5360 5353 5351 5344 5347 5347 5342
5265 5271 5279 5287 5296 5305 5313 5321 5327 5337 5344 5349 5353 5357 5359 5360 5359 5356 5358 5361 5362 5357 5351 5351 5354 5367 5374 5374 5374 5373 5372 5368 5361 5350 5343 5340 5345 5339 5326 5343 5354 5387 5385 5371 5354 5371 5361 5358 5356 5346 5337 5335 5331 5325
5261 5265 5269 5276 5283 5291 5299 5307 5315 5322 5332 5338 5342 5346 5345 5348 5346 5342 5340 5344 5353 5350 5343 5337 5343 5344 5353 5355 5355 5356 5356 5351 5349 5348 5338 5336 5346 5340 5308 5315 5407 5389 5375 5374 5365 5352 5348 5351 5342 5335 5326 5324 5322 5314
5254 5258 5262 5267 5273 5279 5286 5294 5303 5309 5316 5323 5327 5331 5333 5336 5332 5327 5330 5347 5344 5335 5332 5325 5316 5325 5333 5332 5332 5337 5338 5338 5337 5326 5321 5333 5330 5323 5298 5321 5425 5383 5367 5356 5348 5339 5337 5329 5333 5330 5322 5318 5306 5301
5241 5245 5252 5258 5265 5272 5278 5282 5291 5298 5304 5309 5314 5317 5319 5320 5315 5315 5321 5329 5331 5323 5319 5320 5304 5320 5321 5321 5319 5319 5318 5314 5313 5319 5313 5311 5307 5303 5293 5376 5374 5365 5352 5337 5341 5330 5334 5332 5319 5318 5303 5292 5285 5288
5230 5236 5245 5251 5258 5266 5272 5277 5285 5291 5295 5298 5302 5306 5301 5299 5308 5309 5310 5315 5316 5314 5314 5311 5298 5294 5305 5316 5310 5307 5311 5302 5303 5308 5310 5301 5291 5297 5345 5355 5353 5347 5338 5341 5322 5311 5310 5304 5313 5300 5288 5276 5278 5281
5223 5228 5238 5245 5251 5259 5265 5274 5283 5287 5290 5292 5288 5291 5284 5291 5299 5300 5298 5301 5300 5297 5299 5296 5264 5267 5305 5298 5296 5288 5290 5288 5292 5301 5295 5291 5288 5329 5359 5333 5334 5334 5325 5317 5297 5296 5273 5277 5291 5294 5283 5283 5277 5277
5219 5223 5233 5243 5248 5253 5264 5276 5279 5283 5281 5276 5277 5274 5275 5282 5282 5276 5285 5284 5289 5288 5292 5278 5275 5281 5283 5279 5283 5291 5286 5287 5285 5274 5277 5255 5257 5352 5353 5319 5328 5322 5318 5310 5310 5308 5293 5291 5288 5283 5276 5270 5261 5248
5220 5230 5240 5249 5255 5261 5270 5278 5280 5270 5272 5278 5277 5270 5269 5265 5256 5260 5261 5260 5258 5269 5253 5277 5275 5266 5262 5271 5273 5276 5275 5269 5266 5249 5258 5243 5308 5333 5308 5311 5315 5304 5293 5289 5282 5286 5275 5270 5258 5255 5247 5239 5228 5221
5231 5239 5245 5257 5264 5270 5274 5278 5271 5265 5267 5264 5259 5258 5259 5256 5256 5257 5253 5230 5237 5221 5244 5264 5261 5265 5260 5269 5255 5251 5259 5257 5236 5256 5253 5268 5306 5271 5249 5249 5257 5249 5249 5250 5245 5243 5240 5230 5224 5219 5214 5207 5201 5193
5223 5235 5246 5256 5266 5272 5277 5268 5264 5261 5257 5249 5250 5245 5248 5244 5235 5246 5245 5223 5240 5237 5255 5243 5253 5250 5235 5247 5252 5238 5232 5218 5212 5213 5234 5260 5215 5212 5216 5216 5213 5226 5219 5225 5219 5218 5213 5207 5196 5190 5186 5182 5177 5169
5217 5226 5234 5244 5245 5250 5258 5252 5251 5252 5240 5232 5232 5228 5221 5204 5183 5178 5179 5201 5212 5217 5240 5234 5227 5249 5232 5241 5247 5232 5223 5222 5216 5225 5211 5182 5179 5181 5187 5185 5186 5190 5191 5188 5187 5189 5186 5181 5175 5164 5158 5158 5155 5151
5207 5212 5215 5221 5230 5234 5234 5231 5230 5233 5226 5219 5205 5196 5174 5193 5184 5180 5181 5205 5215 5226 5224 5229 5222 5230 5232 5237 5240 5240 5235 5230 5216 5155 5147 5155 5152 5156 5156 5157 5157 5159 5159 5159 5162 5162 5162 5156 5151 5139 5134 5134 5131 5129
5192 5183 5196 5205 5210 5215 5219 5216 5214 5202 5197 5202 5169 5132 5146 5162 5184 5179 5185 5205 5211 5225 5225 5232 5235 5238 5225 5221 5219 5198 5204 5156 5137 5138 5139 5137 5134 5134 5137 5135 5136 5136 5138 5135 5134 5135 5131 5129 5127 5124 5122 5112 5109 5106
5167 5172 5182 5186 5189 5192 5183 5179 5186 5183 5169 5157 5176 5144 5134 5136 5143 5152 5163 5182 5201 5208 5216 5222 5222 5219 5219 5215 5183 5141 5140 5132 5131 5124 5121 5120 5120 5119 5120 5120 5119 5118 5115 5115 5115 5114 5118 5119 5115 5104 5098 5089 5088 5081
5155 5160 5165 5168 5171 5158 5150 5143 5146 5149 5121 5120 5137 5143 5142 5138 5137 5142 5148 5164 5173 5174 5183 5184 5195 5162 5127 5107 5094 5099 5092 5096 5100 5104 5105 5102 5102 5104 5105 5107 5103 5102 5098 5090 5088 5085 5081 5082 5081 5075 5073 5071 5068 5060
5139 5140 5142 5147 5153 5133 5121 5113 5116 5123 5107 5109 5111 5121 5125 5127 5126 5130 5132 5138 5141 5135 5108 5102 5079 5067 5073 5072 5071 5070 5074 5078 5080 5088 5098 5092 5088 5086 5084 5085 5083 5079 5078 5071 5071 5070 5063 5062 5060 5056 5054 5054 5050 5045
5125 5122 5126 5127 5114 5103 5088 5086 5087 5083 5080 5091 5086 5099 5101 5103 5099 5101 5098 5100 5091 5056 5055 5044 5045 5044 5045 5048 5052 5052 5056 5056 5059 5059 5063 5071 5068 5067 5065 5062 5062 5062 5061 5057 5057 5054 5051 5046 5043 5038 5036 5032 5027 5025
5101 5106 5101 5103 5096 5084 5074 5072 5071 5069 5067 5059 5063 5063 5060 5064 5062 5063 5070 5054 5030 5019 5017 5021 5024 5026 5028 5032 5033 5033 5034 5036 5042 5047 5051 5051 5053 5053 5051 5047 5050 5047 5045 5041 5039 5033 5031 5028 5025 5020 5017 5014 5011 5007
5087 5089 5078 5073 5074 5064 5051 5062 5062 5062 5061 5057 5057 5064 5046 5040 5043 5049 5026 5010 5000 5000 5000 5003 5008 5011 5011 5013 5014 5017 5017 5019 5023 5024 5026 5028 5028 5030 5030 5028 5027 5029 5027 5021 5015 5015 5016 5017 5011 5007 5002 4999 4994 4991
5063 5043 5039 5034 5036 5032 5038 5042 5050 5049 5047 5050 5054 5038 5018 5023 5030 5019 4993 4982 4983 4986 4987 4988 4991 5001 5002 5003 5002 5002 5002 5004 5009 5007 5005 5015 5015 5010 5007 5009 5008 5007 5006 5004 5004 5001 5000 4999 4999 4995 4990 4985 4982 4980
5036 4990 4999 4994 5005 5016 5018 5024 5025 5038 5028 5023 5028 5018 5009 5004 5005 4984 4976 4963 4967 4971 4972 4974 4979 4984 4985 4987 4989 4988 4986 4987 4995 4997 4991 4991 4995 4998 5000 4997 4995 4993 4991 4992 4991 4986 4986 4983 4982 4982 4981 4978 4977 4975
4974 4960 4967 4964 4974 4987 4987 5004 4999 4994 5005 5000 4987 4993 4998 4998 4981 4955 4948 4948 4949 4955 4957 4958 4959 4965 4974 4972 4971 4978 4978 4975 4976 4982 4977 4975 4976 4979 4975 4980 4976 4983 4979 4977 4974 4974 4972 4972 4972 4973 4972 4973 4976 4972
4949 4940 4946 4956 4958 4966 4978 4977 4975 4973 4967 4964 4957 4984 4989 4970 4946 4932 4936 4940 4942 4945 4949 4951 4950 4953 4956 4959 4964 4967 4969 4967 4967 4968 4965 4964 4964 4964 4965 4964 4966 4969 4969 4967 4964 4961 4961 4960 4962 4963 4964 4966 4967 4967
4930 4923 4931 4937 4944 4940 4950 4945 4935 4929 4934 4928 4944 4948 4944 4935 4921 4925 4933 4935 4936 4938 4941 4944 4943 4943 4944 4947 4952 4958 4962 4963 4960 4959 4958 4957 4957 4957 4957 4957 4958 4960 4959 4958 4957 4957 4955 4954 4953 4954 4955 4957 4959 4959
4923 4919 4923 4938 4935 4922 4906 4909 4909 4910 4907 4910 4938 4936 4925 4921 4917 4918 4924 4927 4930 4932 4934 4934 4934 4934 4936 4938 4940 4941 4943 4946 4946 4944 4942 4941 4941 4944 4946 4945 4946 4947 4946 4945 4947 4950 4952 4953 4952 4952 4951 4950 4950 4948
4913 4909 4927 4921 4913 4904 4895 4887 4899 4900 4902 4908 4914 4925 4921 4917 4916 4917 4918 4920 4921 4921 4920 4919 4919 4921 4921 4922 4924 4926 4927 4926 4927 4925 4922 4923 4925 4930 4931 4932 4933 4933 4933 4931 4932 4934 4937 4938 4938 4938 4938 4937 4936 4936
4902 4906 4913 4909 4899 4890 4887 4886 4890 4895 4903 4911 4911 4911 4904 4904 4907 4905 4905 4906 4907 4907 4908 4907 4908 4907 4907 4908 4909 4912 4914 4913 4912 4911 4912 4913 4916 4917 4919 4920 4922 4923 4922 4920 4919 4918 4919 4919 4918 4917 4918 4918 4919 4921
4900 4889 4902 4907 4893 4887 4886 4890 4893 4900 4901 4903 4900 4899 4896 4899 4896 4892 4890 4893 4894 4893 4891 4890 4891 4892 4894 4894 4893 4893 4895 4895 4897 4899 4901 4903 4905 4906 4908 4910 4911 4909 4907 4907 4906 4905 4904 4903 4904 4904 4904 4905 4905 4905
4889 4894 4892 4892 4891 4892 4885 4887 4898 4897 4897 4893 4892 4889 4888 4893 4889 4886 4881 4880 4878 4877 4876 4876 4878 4881 4883 4883 4883 4883 4883 4883 4885 4886 4888 4890 4892 4894 4895 4896 4894 4892 4892 4891 4891 4890 4890 4891 4892 4891 4891 4891 4892 4892